Retour au catalogue

STARLINK-36429

ActifCommunicationsVLEO
NORAD 67356·PAYLOAD·🇺🇸 United States

Lancé Jan 9, 2026 depuis Cape Canaveral Space Force Station

Loading…

Prochains Passages (prochaines 24 heures)

TLE

FraisSource: CelesTrak SupGP

Époque: Sep 14, 2026, 22:40 UTC

1 67356C 26003Y   26257.94493056  .00028940  00000+0  10482-2 0  2576
2 67356  43.0024 238.5578 0001368 265.7604 125.9112 15.27564091    10

Suivez STARLINK-36429 en temps réel avec AllMySat

Download on the App Store